TimeEDT,TemperatureF,Dew PointF,Humidity,Sea Level PressureIn,VisibilityMPH,Wind Direction,Wind SpeedMPH,Gust SpeedMPH,PrecipitationIn,Events,Conditions,WindDirDegrees,DateUTC
12:15 AM,50.4,39.7,67,29.97,10.0,South,6.9,-,N/A,,Clear,190,2013-03-16 04:15:00
12:35 AM,50.9,39.6,65,29.96,10.0,South,8.1,-,N/A,,Clear,190,2013-03-16 04:35:00
12:55 AM,51.4,39.6,64,29.95,10.0,South,6.9,-,N/A,,Clear,190,2013-03-16 04:55:00
1:15 AM,52.2,39.6,62,29.95,10.0,SSW,9.2,-,N/A,,Clear,200,2013-03-16 05:15:00
1:35 AM,52.2,39.2,61,29.94,10.0,SSW,9.2,-,N/A,,Clear,200,2013-03-16 05:35:00
1:55 AM,52.2,39.0,61,29.93,10.0,SSW,8.1,-,N/A,,Clear,200,2013-03-16 05:55:00
2:15 AM,53.2,38.8,58,29.93,10.0,SSW,8.1,-,N/A,,Clear,210,2013-03-16 06:15:00
2:35 AM,54.0,38.8,57,29.92,10.0,SSW,9.2,-,N/A,,Clear,210,2013-03-16 06:35:00
2:55 AM,54.5,39.2,56,29.92,10.0,SSW,10.4,-,N/A,,Clear,210,2013-03-16 06:55:00
3:15 AM,54.7,39.4,56,29.91,10.0,SSW,9.2,-,N/A,,Clear,210,2013-03-16 07:15:00
3:35 AM,55.4,39.6,55,29.91,10.0,SW,9.2,-,N/A,,Clear,220,2013-03-16 07:35:00
3:55 AM,55.9,39.6,54,29.90,10.0,SW,9.2,-,N/A,,Clear,230,2013-03-16 07:55:00
4:15 AM,56.8,39.7,53,29.90,10.0,SW,10.4,-,N/A,,Clear,230,2013-03-16 08:15:00
4:35 AM,57.7,39.9,51,29.89,10.0,SW,10.4,16.1,N/A,,Clear,220,2013-03-16 08:35:00
4:55 AM,58.1,40.1,51,29.89,10.0,SW,10.4,-,N/A,,Clear,230,2013-03-16 08:55:00
5:15 AM,58.1,40.1,51,29.89,10.0,SW,10.4,-,N/A,,Clear,230,2013-03-16 09:15:00
5:35 AM,57.6,40.1,52,29.89,10.0,SW,10.4,-,N/A,,Clear,220,2013-03-16 09:35:00
5:55 AM,57.6,40.5,53,29.89,10.0,SW,8.1,16.1,N/A,,Clear,220,2013-03-16 09:55:00
6:15 AM,58.1,40.5,52,29.90,10.0,SW,9.2,-,N/A,,Clear,230,2013-03-16 10:15:00
6:35 AM,58.1,40.5,52,29.90,10.0,SW,12.7,-,N/A,,Clear,220,2013-03-16 10:35:00
7:15 AM,58.1,40.5,52,29.90,10.0,SW,9.2,16.1,N/A,,Clear,230,2013-03-16 11:15:00
7:55 AM,58.3,40.8,52,29.89,10.0,SW,6.9,-,N/A,,Mostly Cloudy,220,2013-03-16 11:55:00
8:15 AM,58.1,41.0,53,29.90,10.0,SW,9.2,-,N/A,,Overcast,230,2013-03-16 12:15:00
8:35 AM,58.1,41.2,53,29.90,10.0,SW,10.4,-,N/A,,Mostly Cloudy,220,2013-03-16 12:35:00
8:55 AM,58.5,41.5,53,29.91,10.0,SW,9.2,-,N/A,,Mostly Cloudy,230,2013-03-16 12:55:00
9:15 AM,59.0,42.1,53,29.91,10.0,SW,8.1,-,N/A,,Mostly Cloudy,230,2013-03-16 13:15:00
9:35 AM,59.0,42.6,55,29.91,10.0,SW,9.2,-,N/A,,Scattered Clouds,230,2013-03-16 13:35:00
9:55 AM,59.4,43.0,55,29.90,10.0,SW,8.1,-,N/A,,Mostly Cloudy,230,2013-03-16 13:55:00
10:15 AM,61.0,43.7,53,29.90,10.0,SW,8.1,-,N/A,,Overcast,230,2013-03-16 14:15:00
10:35 AM,63.7,43.9,48,29.89,10.0,WSW,9.2,16.1,N/A,,Scattered Clouds,250,2013-03-16 14:35:00
10:55 AM,66.4,43.9,44,29.88,10.0,WSW,12.7,18.4,N/A,,Scattered Clouds,240,2013-03-16 14:55:00
11:15 AM,68.0,43.5,41,29.88,10.0,WSW,13.8,19.6,N/A,,Clear,240,2013-03-16 15:15:00
11:35 AM,68.9,43.7,40,29.87,10.0,WSW,12.7,18.4,N/A,,Scattered Clouds,250,2013-03-16 15:35:00
11:55 AM,70.0,43.5,38,29.87,10.0,WSW,10.4,18.4,N/A,,Scattered Clouds,250,2013-03-16 15:55:00
12:15 PM,71.6,43.3,36,29.86,10.0,SW,11.5,17.3,N/A,,Clear,230,2013-03-16 16:15:00
12:35 PM,73.4,43.9,35,29.85,10.0,SW,15.0,20.7,N/A,,Clear,230,2013-03-16 16:35:00
1:15 PM,75.2,43.3,32,29.83,10.0,SSW,16.1,20.7,N/A,,Clear,210,2013-03-16 17:15:00
1:35 PM,76.6,44.1,31,29.82,10.0,SSW,12.7,19.6,N/A,,Clear,210,2013-03-16 17:35:00
1:55 PM,77.0,43.7,31,29.81,10.0,SSW,16.1,21.9,N/A,,Clear,210,2013-03-16 17:55:00
2:15 PM,78.4,43.9,29,29.80,10.0,SW,12.7,21.9,N/A,,Clear,220,2013-03-16 18:15:00
2:35 PM,78.4,43.3,29,29.78,10.0,SW,11.5,21.9,N/A,,Clear,220,2013-03-16 18:35:00
3:15 PM,80.2,43.3,27,29.77,10.0,WSW,16.1,23.0,N/A,,Clear,240,2013-03-16 19:15:00
3:35 PM,80.2,43.2,27,29.76,10.0,WSW,17.3,21.9,N/A,,Clear,240,2013-03-16 19:35:00
3:55 PM,80.2,43.2,27,29.76,10.0,West,16.1,25.3,N/A,,Clear,260,2013-03-16 19:55:00
4:15 PM,80.2,44.1,28,29.75,10.0,WSW,13.8,24.2,N/A,,Clear,240,2013-03-16 20:15:00
4:35 PM,81.0,43.5,27,29.75,10.0,WSW,17.3,26.5,N/A,,Clear,240,2013-03-16 20:35:00
4:55 PM,81.1,44.1,27,29.75,10.0,WSW,15.0,20.7,N/A,,Clear,240,2013-03-16 20:55:00
5:15 PM,81.0,43.3,26,29.75,10.0,WSW,13.8,20.7,N/A,,Clear,240,2013-03-16 21:15:00
5:35 PM,80.4,42.8,26,29.74,10.0,WSW,15.0,23.0,N/A,,Clear,240,2013-03-16 21:35:00
5:55 PM,80.2,41.9,26,29.74,10.0,WSW,18.4,28.8,N/A,,Clear,240,2013-03-16 21:55:00
6:15 PM,80.2,40.6,24,29.74,10.0,SW,15.0,28.8,N/A,,Clear,230,2013-03-16 22:15:00
6:35 PM,78.8,42.8,28,29.74,10.0,WSW,11.5,20.7,N/A,,Clear,240,2013-03-16 22:35:00
6:55 PM,78.1,41.0,27,29.75,10.0,WSW,10.4,19.6,N/A,,Clear,240,2013-03-16 22:55:00
7:15 PM,77.0,40.6,27,29.75,10.0,SW,12.7,17.3,N/A,,Clear,230,2013-03-16 23:15:00
7:35 PM,75.2,41.0,29,29.76,10.0,SW,8.1,-,N/A,,Clear,220,2013-03-16 23:35:00
7:55 PM,74.1,41.4,31,29.76,10.0,SW,10.4,-,N/A,,Clear,230,2013-03-16 23:55:00
8:15 PM,73.4,41.0,31,29.78,10.0,SW,10.4,-,N/A,,Clear,220,2013-03-17 00:15:00
8:35 PM,73.0,41.0,31,29.79,10.0,SW,9.2,-,N/A,,Clear,220,2013-03-17 00:35:00
9:15 PM,72.0,39.6,31,29.81,10.0,SW,9.2,-,N/A,,Clear,230,2013-03-17 01:15:00
9:35 PM,71.6,39.6,31,29.82,10.0,SW,10.4,-,N/A,,Clear,230,2013-03-17 01:35:00
9:55 PM,71.1,39.6,32,29.83,10.0,SW,9.2,-,N/A,,Clear,230,2013-03-17 01:55:00
10:15 PM,71.1,39.6,32,29.84,10.0,SW,9.2,-,N/A,,Clear,230,2013-03-17 02:15:00
10:35 PM,70.7,39.6,32,29.85,10.0,WSW,10.4,-,N/A,,Clear,240,2013-03-17 02:35:00
10:55 PM,70.3,39.7,33,29.86,10.0,SW,9.2,-,N/A,,Clear,230,2013-03-17 02:55:00
11:15 PM,69.8,40.1,34,29.86,10.0,SW,8.1,-,N/A,,Scattered Clouds,230,2013-03-17 03:15:00
11:35 PM,69.4,40.1,34,29.87,10.0,SW,8.1,-,N/A,,Mostly Cloudy,230,2013-03-17 03:35:00
11:55 PM,68.2,40.1,36,29.87,10.0,SW,8.1,-,N/A,,Scattered Clouds,220,2013-03-17 03:55:00